Regional Weather Roundup
Issued by NWS

Home | Current Version | Previous Version | Graphics & Text | Print | Product List | Glossary Off
Versions: 1 2 3 4 5 6 7 8 9 10 11 12 13 14 15 16 17 18 19 20 21 22 23 24 25 26 27 28 29 30 31 32 33 34 35 36 37 38 39 40 41 42 43 44 45 46 47 48 49 50

020
ASUS43 KMPX 232201
RWRMN
WEATHER ROUNDUP FOR MINNESOTA
NATIONAL WEATHER SERVICE TWIN CITIES/CHANHASSEN MN
500 PM CDT SUN APR 23 2017


NOTE: "FAIR" INDICATES FEW OR NO CLOUDS BELOW 12,000 FEET WITH NO
SIGNIFICANT WEATHER AND/OR OBSTRUCTIONS TO VISIBILITY. N/A MEANS
CURRENT SKY AND/OR WEATHER CONDITIONS ARE NOT AVAILABLE.

MNZ060>063-068>070-232300-
   Twin Cities Metro

CITY           SKY/WX    TMP DP  RH WIND       PRES   REMARKS
TWIN CITIES    CLOUDY    69  33  26 VRB6      29.92F
ST PAUL        MOSUNNY   67  41  38 CALM      29.93F
CRYSTAL        PTSUNNY   66  38  35 E6        29.91F
BLAINE         CLOUDY    64  45  48 NE9       29.94F
LAKEVILLE      CLOUDY    66  37  34 CALM      29.92F
EDEN PRAIRIE   CLOUDY    69  36  29 E7        29.90F
SOUTH ST PAUL  CLOUDY    69  35  29 S3        29.92F
LAKE ELMO      FAIR      66  43  42 NE5       29.95F
$$
MNZ001>005-007-008-013>017-022>024-027-028-232300-
   Northwest Minnesota

CITY           SKY/WX    TMP DP  RH WIND       PRES   REMARKS
BEMIDJI        CLOUDY    32  28  84 E10       30.07F WCI  24
HALLOCK        CLOUDY    39   7  26 E14       30.11F
ROSEAU         CLOUDY    37  18  44 E9        30.12F
WARROAD        CLOUDY    36  18  48 NE10G16   30.14F
THIEF RVR FALL LGT SNOW  30  27  88 NE13      30.10F FOG     WCI  20
CROOKSTON      MIX PCPN  32  30  93 E14       30.09F WCI  22
FOSSTON        CLOUDY    32  28  86 E14       30.06F WCI  22
DETROIT LAKES  CLOUDY    39  32  75 E16G22    29.99F
MOORHEAD       CLOUDY    45  36  70 E17G24    29.96F
PARK RAPIDS    CLOUDY    36  29  75 E13       30.02F
MAHNOMEN       CLOUDY    34  29  83 E18       30.02F WCI  23
$$
MNZ006-009>011-018-025>026-232300-
   North Central Minnesota

CITY           SKY/WX    TMP DP  RH WIND       PRES   REMARKS
BAUDETTE       CLOUDY    38  11  32 E7        30.11F
FLAG ISLAND    CLOUDY    36  10  35 NE5       30.14F
INTL FALLS     CLOUDY    37  13  37 E3        30.13F
WASKISH        FLURRIES  34  25  69 E8        30.12S WCI  27
BIG FORK       SNOW      32  28  86 NE5       30.11F VSB 1/2 WCI  27
LONGVILLE      CLOUDY    34  34 100 NE7       30.06F WCI  28
GRAND RAPIDS   CLOUDY    34  28  79 E8        30.10F WCI  27
CRANE LAKE     CLOUDY    37  14  38 NE3       30.14F
ORR            CLOUDY    37  16  41 MISG      30.09F
COOK           LGT SNOW  32  28  86 S3        30.13S
WALKER         CLOUDY    32  29  87 NE7       30.07S WCI  26
$$
MNZ012-019>021-037-232300-
   Northeast Minnesota

CITY           SKY/WX    TMP DP  RH WIND       PRES   REMARKS
DULUTH         CLOUDY    34  29  82 E15       30.09F WCI  24
ELY            PTSUNNY   37  18  44 CALM      30.11F
HIBBING        CLOUDY    33  30  88 E8        30.10F WCI  26
EVELETH        LGT RAIN  35  30  82 NE5       30.12F WCI  31
DULUTH HARBOR  CLOUDY    37  34  87 NE21      30.14F
TWO HARBORS    CLOUDY    37  30  75 E13       30.12F
SILVER BAY     FLURRIES  34  30  86 E7        30.13F WCI  28
GRAND MARAIS     N/A     35  26  69 SE5       30.19F WCI  31
G MARAIS ARPRT CLOUDY    28  19  69 S6        30.13F WCI  22
$$
MNZ029>031-032-039>041-046>048-054>057-064-232300-
   West Central Minnesota

CITY           SKY/WX    TMP DP  RH WIND       PRES   REMARKS
FERGUS FALLS   CLOUDY    52  37  58 E18G29    29.88F
WHEATON        MOSUNNY   66  36  32 SE14      29.84F
MORRIS         MOSUNNY   70  39  32 SE12      29.83F
ALEXANDRIA     PTSUNNY   56  41  57 E21       29.91F
ELBOW LAKE     FAIR      55  42  61 E22G28    29.87F
WADENA         CLOUDY    43  34  70 NE18      29.97F
GLENWOOD       PTSUNNY   59  43  55 E20G25    29.89F
APPLETON       MOSUNNY   72  34  25 E13G20    29.80F
BENSON         CLOUDY    72  25  17 S10       29.85F
ORTONVILLE     MOSUNNY   70  37  30 E10G16    29.80F
MADISON        MOSUNNY   75  28  17 SW16G32   29.82F
WILLMAR        FAIR      72  34  25 SE8       29.87F
$$
MNZ033>034-036-042>043-049>051-058-059-232300-
   Central Minnesota

CITY           SKY/WX    TMP DP  RH WIND       PRES   REMARKS
ST CLOUD       CLOUDY    54  41  61 NE13G21   29.94F
SAUK CENTRE    FAIR      54  41  63 E18       29.91F
PAYNESVILLE    PTSUNNY   61  42  48 E14       29.90F
AITKIN         CLOUDY    43  30  61 E9G17     30.03F
PINE RIVER     CLOUDY    37  32  81 NE10      30.07F
BRAINERD       CLOUDY    43  34  70 E12       30.01F
STAPLES        CLOUDY    43  34  70 NE13G20   29.98F
LONG PRAIRIE   FAIR      52  39  62 NE14G20   29.93F
LITTLE FALLS   CLOUDY    50  36  57 NE6       29.96F
LITCHFIELD     CLOUDY    64  46  52 E13       29.90F
BUFFALO        CLOUDY    60  44  54 NE12      29.93F
MAPLE LAKE     CLOUDY    61  46  58 E12       29.93F
HUTCHINSON     CLOUDY    69  33  26 S8        29.90F
$$
MNZ037-044-045-052-053-232300-
   East Central Minnesota

CITY           SKY/WX    TMP DP  RH WIND       PRES   REMARKS
PRINCETON      CLOUDY    55  39  54 NE13      29.97F
MORA           CLOUDY    50  36  57 E6        30.03F
CAMBRIDGE      PTSUNNY   55  39  54 NE8       29.96F
RUSH CITY      CLOUDY    52  38  58 NE10      30.00F
MOOSE LAKE     CLOUDY    37  32  81 NE8       30.06F
HINCKLEY       FAIR      46  36  66 NE15      30.02F
CLOQUET        CLOUDY    36  28  75 NE12      30.08F
MCGREGOR       CLOUDY    39  32  75 E13       30.06F
$$
MNZ071>073-080-081-089-090-097-098-232300-
   Southwest Minnesota

CITY           SKY/WX    TMP DP  RH WIND       PRES   REMARKS
MONTEVIDEO     CLOUDY    73  34  23 SW14G24   29.83F
GRANITE FALLS  CLOUDY    75  34  22 S22G30    29.85F
CANBY          MOSUNNY   73  28  18 SW15G26   29.84F
MARSHALL       MOSUNNY   72  31  22 SW24G33   29.83F
REDWOOD FALLS  CLOUDY    71  29  21 S21G26    29.85F
OLIVIA         PTSUNNY   70  32  24 S16       29.85F
PIPESTONE      PTSUNNY   70  25  18 SW25G32   29.85F
WINDOM         PTSUNNY   70  25  18 S15G24    29.89F
WORTHINGTON    MOSUNNY   69  30  23 S22G29    29.90F
JACKSON        CLOUDY    70  27  19 S21G28    29.92F
TRACY          CLOUDY    71  33  25 S15G21    29.86F
SLAYTON        CLOUDY    68  29  22 S22G29    29.89F
$$
MNZ065>067-074>077-082>085-091>093-232300-
   South Central Minnesota

CITY           SKY/WX    TMP DP  RH WIND       PRES   REMARKS
MANKATO        CLOUDY    71  26  18 SW14      29.91F
NEW ULM        CLOUDY    70  32  24 S13       29.88F
ST JAMES       PTSUNNY   70  30  23 S15G22    29.91F
FAIRMONT       MOSUNNY   71  27  19 SW17G23   29.92F
GLENCOE        CLOUDY    71  35  26 SW10G17   29.90F
FARIBAULT      MOSUNNY   72  28  20 SW12      29.93F
OWATONNA       CLOUDY    72  21  15 SW13G25   29.94F
WASECA         CLOUDY    72  30  21 SW16G23   29.94F
ALBERT LEA     CLOUDY    70  21  16 SW9G17    29.95F
$$
MNZ078>079-086>088-094>096-232300-
   Southeast Minnesota

CITY           SKY/WX    TMP DP  RH WIND       PRES   REMARKS
ROCHESTER      MOSUNNY   70  30  22 SW10      29.97F
RED WING       MOSUNNY   72  28  20 SW3       29.93F
STANTON        CLOUDY    72  30  21 SW14G21   29.91F
DODGE CENTER   CLOUDY    70  28  21 SW14G20   29.96F
WINONA         SUNNY     70  32  24 SW5       29.97F
AUSTIN         CLOUDY    70  30  23 SW13G20   29.96F
PRESTON        SUNNY     68  30  23 SW9       29.99F
$$
ABBREVIATIONS USED IN REMARKS
   TC - TEMPERATURES IN CELSIUS
  WCI - WIND CHILL INDEX
   HX - HEAT INDEX
  VSB - VISIBILITY
$$




USA.gov is the U.S. government's official web portal to all federal, state and local government web resources and services.